FW2430 Weather Reports


time (UTC)temp
F
wind
direction
speed
knots
gust
knots
rain 1hr
in
rain 24hr
in
rain mn
in
humidity
%
barometer
mb
20260504001535 57 264 1.7 7.0 0.00 0.00 0.00 47 1012.2
20260504000134 57 231 3.5 14.8 0.00 0.00 0.00 46 1012.2
20260503234600 57 207 2.6 12.2 0.00 0.00 0.00 47 1012.2
20260503233021 58 229 1.7 13.0 0.00 0.00 0.00 46 1012.3
20260503231616 58 215 6.1 14.8 0.00 0.00 0.00 45 1012.3
20260503230038 59 223 4.3 16.5 0.00 0.00 0.00 43 1012.4
20260503224630 60 194 4.3 12.2 0.00 0.00 0.00 42 1012.4
20260503223048 60 309 6.1 13.9 0.00 0.00 0.00 41 1012.5
20260503221515 59 180 5.2 13.9 0.00 0.00 0.00 42 1012.5
20260503220106 60 178 5.2 13.9 0.00 0.00 0.00 42 1012.6
20260503214531 60 213 3.5 13.0 0.00 0.00 0.00 43 1012.6
20260503213135 61 232 5.2 13.9 0.00 0.00 0.00 43 1012.4
20260503211616 60 226 3.5 15.6 0.00 0.00 0.00 42 1012.4
20260503210016 61 202 3.5 11.3 0.00 0.00 0.00 42 1012.5
20260503204626 61 269 0.0 14.8 0.00 0.00 0.00 40 1012.6
20260503203036 60 238 7.8 20.9 0.00 0.00 0.00 41 1012.7
20260503201632 61 223 5.2 19.1 0.00 0.00 0.00 43 1012.9
20260503200046 60 223 6.1 13.0 0.00 0.00 0.00 42 1013.1
20260503194509 61 262 2.6 13.9 0.00 0.00 0.00 43 1013.2
20260503193058 61 243 2.6 16.5 0.00 0.00 0.00 40 1013.6
20260503191516 61 246 7.8 15.6 0.00 0.00 0.00 41 1013.8
20260503184530 60 250 10.4 20.0 0.00 0.00 0.00 38 1014.2
20260503183123 60 254 7.0 19.1 0.00 0.00 0.00 38 1014.3
20260503181550 59 248 8.7 19.1 0.00 0.00 0.00 37 1014.5
20260503180134 59 275 6.1 17.4 0.00 0.00 0.00 41 1014.8
20260503174601 60 265 7.0 16.5 0.00 0.00 0.00 43 1014.9
20260503173005 59 217 7.8 20.0 0.00 0.00 0.00 40 1015.0
20260503171603 59 246 8.7 20.0 0.00 0.00 0.00 41 1015.1
20260503130123 47 281 3.5 9.6 0.00 0.00 0.00 49 1017.2
20260503100121 39 209 0.0 0.0 0.00 0.01 0.00 77 1016.4
20260503081614 35 219 0.0 0.0 0.00 0.04 0.00 85 1016.8
20260503071517 35 302 0.0 0.0 0.00 0.04 0.00 85 1016.8
20260503070116 35 302 0.0 0.0 0.00 0.04 0.00 86 1016.8
20260503054605 33 298 0.0 0.0 0.00 0.04 0.00 90 1017.3
20260503053026 33 298 0.0 0.0 0.00 0.04 0.00 89 1017.4
20260503051612 34 298 0.0 0.0 0.00 0.04 0.00 89 1017.4
20260503050025 34 298 0.0 0.0 0.00 0.04 0.00 89 1017.5
20260503044613 34 298 0.0 0.0 0.00 0.04 0.00 88 1017.6
20260503043031 35 298 0.0 0.0 0.00 0.04 0.00 87 1017.5
20260503041628 36 298 0.0 0.0 0.00 0.04 0.00 86 1017.7
20260503040049 37 298 0.0 0.0 0.00 0.04 0.00 85 1017.8
20260503034634 37 298 0.0 0.0 0.00 0.04 0.04 85 1017.8
20260503033059 38 298 0.0 0.0 0.00 0.04 0.04 84 1017.8
20260503031519 38 298 0.0 0.0 0.00 0.04 0.04 84 1017.8
20260503030114 39 298 0.0 0.0 0.00 0.04 0.04 84 1017.9
20260503024537 39 298 0.0 0.0 0.00 0.04 0.04 84 1018.2
20260503023120 39 298 0.0 0.0 0.00 0.04 0.04 83 1018.3
20260503021543 39 298 0.0 0.0 0.00 0.04 0.04 81 1018.3
20260503020003 39 298 0.0 0.0 0.00 0.04 0.04 80 1018.2
20260503014628 39 298 0.0 0.0 0.00 0.04 0.04 79 1018.2
20260503013032 40 298 0.0 0.0 0.00 0.04 0.04 77 1018.2
20260503011635 40 298 0.0 0.0 0.00 0.04 0.04 78 1018.2
20260503010037 41 298 0.0 0.0 0.00 0.04 0.04 77 1018.2
20260503004633 41 298 0.0 0.0 0.00 0.04 0.04 76 1018.2
20260503003102 41 298 0.0 0.0 0.00 0.04 0.04 73 1018.1